GW5517 Weather Reports


Display with metric or nautical units.
time (UTC)temp
F
wind
direction
speed
MPH
gust
MPH
rain 1hr
in
rain 24hr
in
rain mn
in
humidity
%
barometer
mb
20260506101544 62 0 1.0 4.0 0.00 0.00 0.00 85 1013.5
20260506100045 62 0 0.0 4.0 0.00 0.00 0.00 84 1013.4
20260506094554 62 196 1.0 3.0 0.00 0.00 0.00 83 1013.0
20260506093036 62 80 2.0 6.0 0.00 0.00 0.00 83 1013.2
20260506091542 63 0 1.0 4.0 0.00 0.00 0.00 83 1013.5
20260506090042 63 0 1.0 5.0 0.00 0.00 0.00 82 1013.5
20260506084546 63 180 0.0 7.0 0.00 0.00 0.00 83 1013.6
20260506083041 62 146 1.0 4.0 0.00 0.00 0.00 84 1013.7
20260506081540 62 0 0.0 3.0 0.00 0.00 0.00 83 1013.8
20260506073051 62 101 1.0 3.0 0.00 0.00 0.00 83 1013.4
20260506071544 62 0 0.0 2.0 0.00 0.00 0.00 82 1013.6
20260506061544 63 120 0.0 2.0 0.00 0.00 0.00 81 1013.9
20260506044546 65 0 1.0 4.0 0.00 0.00 0.00 75 1014.7
20260506043039 65 162 0.0 3.0 0.00 0.00 0.00 75 1014.7
20260506041541 66 94 2.0 6.0 0.00 0.00 0.00 74 1014.9
20260506040058 66 88 1.0 7.0 0.00 0.00 0.00 73 1014.9
20260506034549 66 134 0.0 6.0 0.00 0.00 0.00 73 1014.7
20260506033042 67 5 1.0 4.0 0.00 0.00 0.00 73 1014.8
20260506031553 67 0 0.0 6.0 0.00 0.00 0.00 72 1014.8
20260506030045 67 130 2.0 7.0 0.00 0.00 0.00 71 1014.7
20260506024543 68 97 2.0 8.0 0.00 0.00 0.00 70 1014.6
20260506023044 68 360 2.0 6.0 0.00 0.00 0.00 70 1014.6
20260506021539 68 149 3.0 10.0 0.00 0.00 0.00 67 1014.6
20260506020034 69 196 1.0 9.0 0.00 0.00 0.00 69 1014.6
20260506014543 69 221 2.0 7.0 0.00 0.00 0.00 70 1014.4
20260506013045 70 78 2.0 5.0 0.00 0.00 0.00 69 1014.4
20260506011548 70 118 1.0 7.0 0.00 0.00 0.00 69 1014.1
20260506010042 70 130 2.0 10.0 0.00 0.00 0.00 67 1013.8
20260506004548 71 134 2.0 7.0 0.00 0.00 0.00 68 1013.7
20260506003042 72 124 2.0 7.0 0.00 0.00 0.00 66 1013.6
20260506001541 72 94 1.0 6.0 0.00 0.00 0.00 65 1013.5
20260506000039 73 40 3.0 10.0 0.00 0.00 0.00 62 1013.4
20260505234556 74 63 2.0 9.0 0.00 0.00 0.00 63 1013.2
20260505233044 74 68 2.0 8.0 0.00 0.00 0.00 62 1013.0
20260505231547 75 43 2.0 8.0 0.00 0.00 0.00 60 1013.0
20260505230040 76 95 2.0 6.0 0.00 0.00 0.00 60 1012.7
20260505224547 76 111 2.0 10.0 0.00 0.00 0.00 59 1012.8
20260505223051 77 9 4.0 8.0 0.00 0.00 0.00 57 1012.7
20260505221546 78 49 2.0 11.0 0.00 0.00 0.00 56 1012.7
20260505220042 78 112 5.0 11.0 0.00 0.00 0.00 53 1012.7
20260505214550 79 78 1.0 4.0 0.00 0.00 0.00 52 1012.7
20260505213046 79 218 1.0 6.0 0.00 0.00 0.00 50 1012.3
20260505211541 80 82 1.0 5.0 0.00 0.00 0.00 48 1012.4
20260505210042 80 150 2.0 7.0 0.00 0.00 0.00 48 1012.5
20260505204540 81 90 2.0 8.0 0.00 0.00 0.00 46 1012.4
20260505203037 81 211 2.0 12.0 0.00 0.00 0.00 45 1012.4
20260505201536 81 54 1.0 12.0 0.00 0.00 0.00 46 1012.7
20260505200041 81 77 3.0 8.0 0.00 0.00 0.00 46 1013.1
20260505194600 80 49 2.0 9.0 0.00 0.00 0.00 45 1013.4
20260505193044 80 218 2.0 8.0 0.00 0.00 0.00 47 1013.6
20260505191544 80 57 1.0 15.0 0.00 0.00 0.00 46 1013.9
20260505190040 79 18 2.0 9.0 0.00 0.00 0.00 49 1014.1
20260505184546 80 160 3.0 12.0 0.00 0.00 0.00 45 1014.3
20260505183044 79 101 2.0 10.0 0.00 0.00 0.00 47 1014.3
20260505181549 79 63 2.0 8.0 0.00 0.00 0.00 46 1014.4
20260505180044 78 117 3.0 8.0 0.00 0.00 0.00 45 1014.5
20260505174541 78 316 2.0 10.0 0.00 0.00 0.00 48 1014.5
20260505173046 78 121 4.0 11.0 0.00 0.00 0.00 48 1014.5
20260505171543 77 95 4.0 8.0 0.00 0.00 0.00 50 1014.8
20260505170040 77 170 3.0 7.0 0.00 0.00 0.00 49 1014.8
20260505164545 77 0 1.0 7.0 0.00 0.00 0.00 50 1015.2
20260505163048 77 98 2.0 11.0 0.00 0.00 0.00 52 1015.3
20260505161545 76 350 1.0 8.0 0.00 0.00 0.00 53 1015.3
20260505153041 74 360 2.0 8.0 0.00 0.00 0.00 57 1015.7
20260505151537 74 360 2.0 7.0 0.00 0.00 0.00 57 1015.6
20260505130107 67 73 2.0 9.0 0.00 0.00 0.00 68 1015.9
20260505124553 67 113 2.0 7.0 0.00 0.00 0.00 67 1015.9
20260505123047 67 0 1.0 6.0 0.00 0.00 0.00 68 1015.9
20260505121547 66 75 1.0 4.0 0.00 0.00 0.00 69 1015.7
20260505120053 65 41 1.0 6.0 0.00 0.00 0.00 72 1015.7
20260505114541 64 119 1.0 4.0 0.00 0.00 0.00 73 1015.7
20260505113039 62 95 1.0 4.0 0.00 0.00 0.00 75 1015.7
20260505111539 60 0 0.0 3.0 0.00 0.00 0.00 79 1015.6